Torna al catalogo

NIMBUS 2 DEB

AttivoSSO
NORAD 42439·DEBRIS·🇺🇸 United States

Lanciato May 15, 1966 da Vandenberg Space Force Base

Loading…

Prossimi Passaggi (prossime 24 ore)

TLE

ObsoletoSource: Space-Track

Epoca: Aug 25, 2026, 19:35 UTC

1 42439U 66040BS  26237.81647934  .00001780  00000-0  28273-2 0  9990
2 42439 100.2263  96.4380 0042898 326.5961  33.2468 13.50642841532416

Traccia NIMBUS 2 DEB in tempo reale con AllMySat

Download on the App Store